Volver al catálogo

STARLINK-5789

ActivoComunicacionesVLEO
NORAD 56003·PAYLOAD·🇺🇸 United States

Lanzado Mar 24, 2023 desde Cape Canaveral Space Force Station

Loading…

Próximos Pases (próximas 24 horas)

TLE

ActualizadoSource: CelesTrak SupGP

Época: Sep 15, 2026, 02:26 UTC

1 56003C 23042T   26258.10187500 -.00039784  00000+0 -14406-2 0  2587
2 56003  43.0000  70.1602 0002438 249.2888 143.6677 15.27605453    10

Sigue STARLINK-5789 en tiempo real con AllMySat

Download on the App Store